Location: Miles
(41.4492°N, 81.6087°W)
Time: 00:48:47
(UTC+00:00)

Courier 1B Rocket - Pass Details

Date: 21 September 2024
Orbit: 920 x 1201 km, 28.3° (Epoch: 15 October)

Event Time Altitude Azimuth Distance (km) Brightness Sun altitude
Rises 17:12:03 0° 203° (SSW) 3,540 8.5 48.8°
Reaches altitude 10° 17:17:38 10° 163° (SSE) 2,606 8.1 48.9°
Maximum altitude 17:18:27 10° 156° (SSE) 2,591 8.1 48.9°
Drops below altitude 10° 17:19:15 10° 148° (SSE) 2,614 8.0 48.9°
Sets 17:24:55 0° 108° (ESE) 3,606 8.1 48.8°
